Location: Brantley
(31.5822°N, 86.2569°W)
Time: 07:04:46
(UTC+00:00)

Vanguard 3 - Pass Details

Date: 17 February 2026
Orbit: 507 x 3205 km, 33.4° (Epoch: 9 March)

Event Time Altitude Azimuth Distance (km) Brightness Sun altitude
Rises 00:43:34 0° 274° (W) 4,127 12.5 -15.7°
Reaches altitude 10° 00:47:02 10° 276° (W) 2,763 11.2 -16.4°
Maximum altitude 00:53:09 72° 1° (N) 725 6.8 -17.7°
Enters shadow 00:54:49 37° 77° (ENE) 980 7.0 -18.1°
Drops below altitude 10° 00:57:10 10° 86° (E) 1,845 - -18.6°
Sets 00:59:06 0° 89° (E) 2,647 - -19.0°
